Wind_Speed
16 16 15 15 14 14 14 13 13 13 13 13 12 12 11 11 10 10 9 9 9 8 8 7 6 5 5 4 3 2 2 1 1 1 0 1 1 2 2 2 2 3 3
18 17 17 16 15 15 15 14 14 14 14 13 13 13 13 12 12 11 10 10 10 9 9 8 7 6 6 5 4 4 3 3 2 2 2 1 1 2 2 2 2 3 3
19 19 18 18 17 17 16 16 15 15 15 14 14 14 13 13 13 13 12 11 10 10 10 9 8 8 7 6 6 5 5 4 3 3 3 3 2 2 3 3 3 3 4
21 21 20 20 19 18 18 18 17 17 16 16 15 15 14 14 14 13 13 12 11 11 11 10 9 9 8 7 7 7 6 6 5 5 5 4 4 4 4 4 4 4 4
23 22 22 21 20 19 19 18 18 18 18 17 17 16 15 15 15 14 14 14 13 12 11 11 11 10 9 9 8 8 7 7 7 7 6 6 6 5 5 5 5 5 6
25 24 23 22 22 21 20 20 19 19 19 18 17 17 17 16 16 15 15 15 14 13 13 12 12 11 11 10 10 9 9 8 8 8 8 8 7 7 7 7 7 7 7
27 26 26 25 24 23 22 21 21 21 20 19 18 18 18 17 17 16 16 16 15 14 14 14 13 13 12 12 12 11 11 10 10 9 9 9 9 9 9 8 8 8 8
29 29 28 27 26 25 24 23 23 22 22 21 20 19 18 18 18 17 17 16 16 15 15 15 14 15 14 14 13 13 13 12 11 11 11 11 11 10 10 9 9 10 10
31 30 30 29 28 27 26 25 25 24 23 23 22 21 20 19 19 18 18 17 17 17 16 16 16 16 16 15 15 15 14 13 13 13 12 12 12 11 11 11 11 11 11
33 32 32 31 30 29 28 27 27 26 25 25 24 23 22 21 20 20 19 19 19 18 18 17 17 17 17 17 16 16 16 15 15 14 14 14 13 13 13 13 13 13 13
36 35 34 33 32 31 30 29 29 28 27 27 26 25 25 24 23 22 21 20 20 19 19 18 17 17 18 18 17 17 17 16 16 15 15 15 15 15 15 15 14 14 14
37 36 36 35 33 32 31 31 31 30 29 28 28 27 27 26 25 24 23 22 21 20 20 19 18 18 18 19 19 18 18 17 17 17 17 17 17 17 17 16 16 16 16
39 38 37 36 35 34 33 32 32 31 31 30 30 29 29 28 27 26 25 25 23 22 21 20 20 20 20 20 20 19 19 18 19 18 18 18 18 18 18 18 18 18 18
40 40 39 38 37 36 34 33 33 32 31 31 31 31 30 29 28 28 27 26 25 24 24 23 22 21 21 21 20 20 20 20 20 20 20 20 20 20 20 20 20 20 20
41 41 40 40 39 38 36 36 35 33 32 32 32 32 32 31 30 29 29 27 27 26 25 25 23 23 22 22 21 21 21 21 21 21 22 22 22 22 21 22 22 21 22
42 42 42 41 41 40 39 38 37 35 34 34 34 33 33 33 32 31 30 29 29 28 27 26 25 25 24 23 23 23 23 22 22 22 22 22 22 22 22 23 23 23 23
43 43 43 43 42 42 41 40 39 38 36 36 36 35 34 34 33 33 32 31 30 29 28 27 26 26 26 25 24 24 23 23 23 23 23 23 23 23 23 24 24 24 24
44 44 44 44 44 43 43 42 41 40 39 37 37 36 35 35 34 34 33 32 32 31 29 29 28 27 27 26 26 25 25 25 25 25 25 25 24 24 24 24 24 25 24
45 45 45 45 45 45 45 44 43 41 40 39 38 37 36 37 36 35 34 33 33 32 31 31 30 29 28 28 27 27 27 27 27 27 26 26 26 25 25 25 25 25 25
46 46 46 45 45 45 46 45 44 43 42 41 39 38 37 37 37 37 35 34 34 33 33 33 32 31 30 29 29 29 28 28 28 28 28 28 27 27 27 27 27 27 27
46 46 46 46 46 46 46 46 45 45 44 44 43 41 39 39 38 38 38 37 36 35 34 34 33 33 32 31 30 30 30 30 30 29 29 29 29 29 29 28 28 28 29
46 46 46 46 46 47 47 46 46 46 46 45 44 44 43 42 41 41 40 39 38 37 36 35 34 34 34 33 32 31 31 31 31 31 31 31 31 31 30 30 29 30 30
48 47 48 47 47 47 47 47 46 46 46 46 45 45 45 44 43 42 42 41 40 39 38 37 37 36 35 34 33 33 32 32 32 32 32 32 32 32 31 31 31 31 30
48 48 48 48 47 47 47 47 46 46 46 46 45 46 46 45 44 44 43 43 42 41 40 39 39 38 37 36 35 35 34 34 33 33 33 33 33 33 33 33 33 32 32
48 49 49 49 48 47 47 47 47 46 46 46 46 46 46 46 45 45 44 44 43 42 41 41 40 40 39 38 37 36 36 36 35 34 34 33 33 33 33 34 34 34 33
48 49 49 49 49 48 48 48 48 47 46 46 47 47 47 47 47 46 46 45 44 43 42 42 41 41 40 39 39 39 38 37 37 36 35 35 35 34 34 34 34 34 34
Wind_Direction
230 230 229 229 228 229 228 228 229 227 224 220 218 218 219 220 221 221 222 222 222 220 220 220 222 221 216 216 218 218 217 218 229 237 250 347 4 12 10 8 7 7 2
232 232 232 232 231 231 232 231 230 229 227 225 223 222 223 223 224 224 224 225 225 224 224 224 226 226 224 224 227 229 232 235 242 244 248 270 306 336 347 346 341 342 342
234 234 234 234 234 233 233 233 233 232 231 230 228 226 226 226 225 226 227 228 228 227 227 227 229 232 232 233 235 237 238 242 248 251 253 261 280 300 311 317 325 329 328
234 235 234 234 235 234 234 234 233 233 234 233 231 230 229 229 230 229 230 231 232 231 231 231 234 238 239 241 243 244 246 247 251 255 256 261 272 285 293 298 304 314 316
235 234 234 234 234 235 234 234 233 234 235 236 235 233 232 231 232 232 232 231 232 233 234 234 235 239 242 244 247 249 250 252 255 257 259 263 269 277 284 289 293 298 303
235 235 234 234 234 234 234 234 233 233 234 235 235 236 235 234 233 232 232 233 233 233 236 238 238 241 244 246 249 253 255 257 260 263 266 268 271 276 277 281 285 291 297
236 235 234 235 235 234 234 234 234 233 234 236 236 237 237 236 235 236 235 234 234 236 238 241 243 245 248 249 251 254 257 258 261 265 269 273 273 273 273 278 281 285 290
237 235 235 235 235 235 235 235 235 235 235 236 237 237 236 237 237 237 237 236 237 239 241 243 246 248 250 251 253 255 258 260 263 265 269 275 276 273 271 276 280 283 285
237 236 236 235 235 236 236 236 236 236 237 237 237 237 238 238 238 238 238 239 240 241 245 247 249 251 251 252 254 256 258 260 264 267 271 275 276 275 275 275 277 280 283
236 236 236 236 236 237 237 237 237 237 238 238 239 239 240 240 239 239 239 242 244 245 246 248 251 253 253 254 255 256 259 261 263 266 270 273 276 276 278 277 277 278 280
237 236 237 237 237 237 237 238 238 238 239 240 240 241 242 242 241 241 241 243 246 247 247 248 251 254 255 255 256 258 260 263 264 267 269 271 274 275 277 277 277 278 278
237 237 237 237 237 237 238 239 239 240 240 241 241 242 242 242 242 243 244 246 247 248 248 249 251 254 256 257 258 259 260 263 265 267 269 272 274 275 276 276 276 277 279
237 237 237 237 237 237 237 239 240 241 241 242 242 242 242 242 242 243 245 247 248 249 250 251 253 256 258 259 259 260 261 263 265 267 269 271 273 274 275 277 277 278 279
237 237 237 237 237 237 238 239 241 241 242 242 242 242 242 242 242 243 244 246 247 249 250 251 254 256 258 260 260 261 262 263 264 267 269 272 273 274 274 276 277 277 279
236 237 237 237 237 237 238 239 240 241 241 242 242 242 242 242 243 243 244 246 248 250 251 252 254 256 258 260 261 262 263 263 265 267 269 272 273 274 275 276 277 277 278
236 237 237 237 237 238 238 239 240 241 241 241 241 242 242 242 243 244 245 247 249 250 251 254 255 256 257 259 261 263 264 264 266 268 269 272 274 276 276 276 277 277 277
235 236 237 237 238 238 238 239 240 241 242 241 241 242 242 242 243 245 245 247 249 251 252 254 255 255 256 258 261 263 264 266 267 268 269 272 274 276 277 277 277 277 277
235 236 237 238 238 239 239 239 240 241 241 242 242 241 242 243 244 245 245 247 249 250 252 253 254 255 256 258 261 262 264 266 267 268 270 272 273 275 277 277 277 277 277
236 236 236 237 238 239 239 240 240 241 241 242 241 241 242 243 243 245 245 247 248 249 251 252 254 255 257 259 261 263 264 266 267 269 271 271 272 273 275 276 276 276 276
236 237 237 237 238 239 239 240 241 240 241 241 241 242 243 244 244 244 246 247 249 250 252 253 254 256 257 260 261 262 265 266 267 268 270 271 272 273 274 275 275 275 276
236 237 237 238 239 239 240 241 242 242 242 242 242 243 244 244 244 245 246 248 250 251 252 254 255 256 258 260 262 263 264 265 266 267 269 270 271 273 274 274 274 275 276
236 237 238 238 239 240 241 242 243 243 243 243 243 244 245 245 246 246 247 248 250 250 252 253 254 256 258 260 261 263 264 266 265 267 268 269 271 272 272 273 274 275 276
235 237 238 239 239 240 241 242 243 244 244 244 243 244 244 245 246 248 248 249 249 250 251 252 253 255 257 259 261 263 264 265 266 267 268 269 270 271 272 272 273 274 275
236 237 238 240 241 241 242 242 243 243 244 244 244 244 244 245 247 248 248 249 250 250 251 252 253 255 256 258 261 262 264 265 266 267 268 269 270 270 271 272 273 274 275
236 237 239 240 241 242 242 242 242 243 244 244 244 244 245 246 247 248 248 249 250 250 251 252 253 254 256 258 260 262 263 264 265 267 267 268 269 270 270 271 272 273 274
237 237 238 239 240 242 242 242 242 244 244 245 245 245 246 246 247 248 248 249 250 250 250 251 253 254 256 258 260 262 263 264 265 266 266 267 268 269 270 272 272 272 272
Height
5842 5843 5845 5846 5848 5849 5851 5852 5853 5854 5855 5856 5857 5858 5860 5861 5862 5863 5864 5865 5866 5867 5868 5868 5869 5870 5870 5870 5871 5871 5871 5872 5872 5872 5873 5873 5873 5873 5873 5873 5873 5872 5872
5840 5841 5843 5844 5846 5847 5849 5850 5851 5852 5854 5855 5856 5857 5858 5859 5861 5862 5863 5864 5865 5866 5867 5868 5868 5869 5869 5870 5870 5871 5871 5871 5872 5872 5872 5873 5873 5873 5873 5873 5873 5872 5872
5837 5839 5840 5842 5844 5845 5847 5848 5849 5851 5852 5853 5854 5855 5857 5858 5859 5860 5861 5863 5864 5865 5866 5867 5867 5868 5869 5869 5870 5870 5871 5871 5871 5872 5872 5872 5873 5873 5873 5872 5872 5872 5872
5834 5836 5837 5839 5841 5842 5844 5846 5847 5848 5850 5851 5852 5853 5855 5856 5858 5859 5860 5861 5862 5863 5864 5865 5866 5867 5868 5868 5869 5869 5870 5870 5871 5871 5872 5872 5872 5872 5872 5872 5872 5872 5872
5830 5832 5834 5836 5838 5839 5841 5843 5844 5846 5847 5849 5850 5851 5853 5854 5856 5857 5858 5859 5861 5862 5863 5864 5865 5866 5867 5867 5868 5868 5869 5869 5870 5870 5871 5871 5871 5871 5871 5871 5871 5871 5871
5826 5828 5830 5832 5834 5836 5838 5840 5841 5843 5845 5846 5848 5849 5850 5852 5853 5855 5856 5857 5859 5860 5861 5862 5863 5864 5865 5866 5866 5867 5868 5868 5869 5869 5870 5870 5870 5870 5870 5870 5870 5870 5870
5822 5824 5826 5828 5830 5832 5834 5836 5838 5840 5842 5843 5845 5846 5848 5849 5851 5852 5854 5855 5856 5857 5859 5860 5861 5862 5863 5864 5865 5865 5866 5867 5867 5868 5868 5868 5869 5869 5869 5869 5869 5869 5869
5817 5820 5821 5824 5826 5828 5830 5832 5834 5836 5838 5840 5842 5843 5845 5846 5848 5849 5851 5852 5854 5855 5856 5858 5859 5860 5861 5862 5863 5863 5864 5865 5866 5866 5867 5867 5867 5867 5867 5867 5867 5867 5867
5812 5814 5817 5819 5821 5824 5826 5828 5830 5832 5835 5837 5838 5840 5842 5843 5845 5847 5848 5850 5851 5852 5854 5855 5856 5857 5858 5859 5860 5861 5862 5863 5863 5864 5865 5865 5865 5865 5865 5865 5865 5865 5865
5806 5808 5811 5814 5816 5819 5821 5824 5826 5828 5830 5833 5835 5837 5838 5840 5842 5843 5845 5847 5848 5849 5851 5852 5853 5854 5856 5857 5857 5858 5859 5860 5861 5862 5862 5862 5863 5863 5863 5863 5863 5863 5863
5799 5802 5805 5808 5811 5814 5816 5819 5821 5823 5826 5828 5830 5832 5835 5837 5838 5840 5842 5843 5845 5846 5847 5849 5850 5851 5852 5853 5855 5856 5856 5858 5858 5859 5859 5860 5860 5860 5860 5860 5860 5860 5860
5793 5796 5799 5802 5805 5808 5811 5813 5816 5818 5821 5823 5825 5828 5830 5832 5834 5836 5838 5839 5841 5842 5844 5845 5847 5848 5849 5850 5851 5852 5853 5855 5855 5856 5856 5857 5857 5857 5857 5857 5857 5857 5857
5786 5789 5792 5796 5799 5802 5805 5807 5810 5813 5815 5818 5820 5822 5824 5827 5829 5831 5833 5835 5837 5839 5840 5842 5843 5844 5845 5846 5848 5849 5850 5851 5852 5852 5853 5853 5853 5853 5853 5853 5853 5854 5854
5778 5781 5785 5788 5792 5795 5798 5801 5804 5807 5809 5812 5814 5816 5819 5821 5824 5826 5829 5831 5833 5834 5836 5838 5839 5840 5842 5842 5844 5845 5846 5847 5848 5848 5849 5849 5849 5849 5849 5849 5849 5850 5849
5770 5773 5777 5781 5785 5788 5791 5794 5797 5800 5803 5806 5808 5810 5813 5816 5818 5821 5823 5825 5828 5829 5831 5833 5835 5836 5837 5838 5839 5840 5841 5842 5843 5844 5844 5845 5845 5845 5845 5845 5845 5845 5845
5761 5765 5769 5773 5777 5781 5784 5787 5790 5793 5796 5799 5801 5804 5806 5809 5812 5815 5818 5820 5822 5824 5826 5828 5830 5831 5833 5834 5835 5836 5837 5838 5839 5839 5840 5840 5840 5840 5840 5840 5840 5840 5840
5752 5756 5760 5765 5769 5772 5776 5779 5783 5786 5789 5792 5795 5797 5800 5803 5806 5809 5811 5814 5816 5818 5821 5823 5824 5826 5827 5829 5830 5831 5832 5833 5833 5834 5835 5835 5835 5836 5835 5835 5835 5835 5835
5743 5747 5751 5756 5760 5764 5768 5771 5775 5778 5781 5784 5787 5790 5793 5796 5799 5802 5805 5808 5810 5812 5815 5817 5818 5820 5821 5823 5824 5825 5826 5827 5828 5829 5829 5830 5830 5830 5830 5830 5830 5830 5830
5733 5738 5742 5746 5751 5755 5759 5763 5767 5770 5773 5777 5780 5783 5786 5790 5792 5795 5798 5801 5804 5806 5808 5810 5812 5814 5815 5817 5818 5820 5820 5821 5822 5823 5823 5824 5824 5824 5825 5825 5824 5824 5824
5723 5728 5732 5737 5741 5745 5749 5753 5758 5762 5765 5769 5772 5776 5779 5782 5785 5788 5791 5794 5797 5799 5801 5803 5805 5807 5809 5811 5812 5813 5814 5815 5816 5817 5817 5818 5818 5818 5818 5818 5818 5818 5818
5713 5718 5722 5727 5731 5735 5739 5744 5748 5752 5756 5760 5764 5768 5771 5775 5778 5781 5784 5787 5789 5792 5794 5796 5798 5800 5802 5804 5805 5806 5807 5808 5809 5810 5810 5811 5811 5812 5812 5812 5812 5811 5811
5704 5708 5712 5717 5721 5725 5730 5734 5739 5742 5746 5750 5754 5758 5762 5766 5769 5772 5776 5779 5781 5784 5787 5789 5791 5793 5795 5796 5798 5799 5800 5802 5802 5803 5803 5804 5804 5805 5805 5805 5805 5805 5805
5693 5698 5703 5707 5711 5715 5720 5724 5729 5732 5736 5740 5745 5749 5752 5756 5760 5763 5767 5770 5773 5776 5778 5781 5783 5785 5787 5788 5790 5792 5793 5794 5795 5796 5796 5796 5797 5797 5797 5797 5798 5798 5797
5683 5688 5692 5697 5701 5705 5710 5714 5719 5723 5727 5731 5735 5739 5742 5746 5750 5754 5757 5761 5764 5766 5769 5772 5774 5777 5778 5780 5781 5783 5784 5786 5787 5788 5788 5788 5789 5789 5790 5790 5790 5790 5790
5672 5677 5682 5686 5691 5695 5700 5704 5708 5713 5717 5721 5725 5728 5732 5736 5740 5743 5747 5750 5754 5757 5760 5762 5765 5767 5769 5771 5773 5774 5775 5776 5778 5779 5780 5781 5781 5781 5781 5781 5782 5782 5782
5662 5666 5671 5676 5680 5685 5690 5694 5698 5703 5707 5711 5714 5718 5722 5726 5730 5733 5737 5740 5744 5747 5750 5753 5755 5757 5760 5762 5763 5765 5766 5767 5769 5770 5771 5772 5772 5773 5773 5773 5773 5773 5773